TJS-11

Last updated on Mon Sep 21 2026 00:03:03 GMT+0000 (Coordinated Universal Time)

1 59020U 24037A 26263.01451247 -.00000366 00000+0 00000+0 0 9999 2 59020 4.0827 328.3119 0002091 277.4589 230.8767 1.00276254 9537
UTC large
Height (km)
Speed (km/s)
/
Latitude / Longitude
Inclination (degrees)
Orbital Period (minutes)
Azimuth
Elevation
Range (km)
Doppler Factor

Next 0 passes for location: London (51.5072 / 0.1276)

No passes found over London.
TJS-11